Time,TemperatureF,DewpointF,PressureIn,WindDirection,WindDirectionDegrees,WindSpeedMPH,WindSpeedGustMPH,Humidity,HourlyPrecipIn,Conditions,Clouds,dailyrainin,SoftwareType,DateUTC
2013-05-17 00:03:00,71.0,56.0,30.06,SW,229,0.0,0.0,60,0.00,,,0.00,,2013-05-17 04:03:00,
2013-05-17 00:13:00,71.0,56.0,30.06,SW,229,0.0,0.0,60,0.00,,,0.00,,2013-05-17 04:13:00,
2013-05-17 00:23:00,70.0,54.0,30.05,SW,229,0.0,0.0,57,0.00,,,0.00,,2013-05-17 04:23:00,
2013-05-17 00:33:00,70.0,54.0,30.05,SW,229,0.0,0.0,56,0.00,,,0.00,,2013-05-17 04:33:00,
2013-05-17 00:43:00,70.0,54.0,30.05,SW,229,0.0,0.0,56,0.00,,,0.00,,2013-05-17 04:43:00,
2013-05-17 00:53:00,70.0,55.0,30.04,SW,229,0.0,0.0,60,0.00,,,0.00,,2013-05-17 04:53:00,
2013-05-17 01:03:00,69.0,55.0,30.04,SW,229,0.0,1.0,62,0.00,,,0.00,,2013-05-17 05:03:00,
2013-05-17 01:14:00,69.0,55.0,30.04,SW,229,0.0,1.0,62,0.00,,,0.00,,2013-05-17 05:14:00,
2013-05-17 01:22:00,69.0,56.0,30.05,SW,229,0.0,0.0,63,0.00,,,0.00,,2013-05-17 05:22:00,
2013-05-17 01:32:00,68.0,53.0,30.05,SW,229,0.0,1.0,59,0.00,,,0.00,,2013-05-17 05:32:00,
2013-05-17 01:43:00,68.0,53.0,30.05,SW,229,0.0,1.0,59,0.00,,,0.00,,2013-05-17 05:43:00,
2013-05-17 01:52:00,68.0,54.0,30.04,SW,229,0.0,0.0,60,0.00,,,0.00,,2013-05-17 05:52:00,
2013-05-17 02:02:00,68.0,54.0,30.04,SW,229,0.0,0.0,61,0.00,,,0.00,,2013-05-17 06:02:00,
2013-05-17 02:11:00,68.0,54.0,30.04,SW,229,0.0,0.0,61,0.00,,,0.00,,2013-05-17 06:11:00,
2013-05-17 02:22:00,68.0,54.0,30.05,SW,229,0.0,2.0,62,0.00,,,0.00,,2013-05-17 06:22:00,
2013-05-17 02:32:00,67.0,54.0,30.05,SW,229,0.0,1.0,64,0.00,,,0.00,,2013-05-17 06:32:00,
2013-05-17 02:42:00,67.0,54.0,30.05,SW,229,0.0,1.0,64,0.00,,,0.00,,2013-05-17 06:42:00,
2013-05-17 02:52:00,67.0,56.0,30.04,SW,229,0.0,0.0,67,0.00,,,0.00,,2013-05-17 06:52:00,
2013-05-17 03:02:00,66.0,56.0,30.04,SW,229,0.0,0.0,69,0.00,,,0.00,,2013-05-17 07:02:00,
2013-05-17 03:11:00,66.0,56.0,30.04,SW,229,0.0,0.0,69,0.00,,,0.00,,2013-05-17 07:11:00,
2013-05-17 03:21:00,66.0,56.0,30.04,SW,229,0.0,0.0,70,0.00,,,0.00,,2013-05-17 07:21:00,
2013-05-17 03:32:00,66.0,56.0,30.04,SW,229,0.0,0.0,70,0.00,,,0.00,,2013-05-17 07:32:00,
2013-05-17 03:43:00,65.0,55.0,30.05,SW,229,0.0,0.0,71,0.00,,,0.00,,2013-05-17 07:43:00,
2013-05-17 03:53:00,65.0,55.0,30.05,SW,229,0.0,0.0,71,0.00,,,0.00,,2013-05-17 07:53:00,
2013-05-17 04:02:00,65.0,55.0,30.05,SW,229,0.0,0.0,71,0.00,,,0.00,,2013-05-17 08:02:00,
2013-05-17 04:12:00,65.0,55.0,30.05,SW,229,0.0,0.0,71,0.00,,,0.00,,2013-05-17 08:12:00,
2013-05-17 04:23:00,65.0,55.0,30.05,SW,229,0.0,0.0,70,0.00,,,0.00,,2013-05-17 08:23:00,
2013-05-17 04:33:00,65.0,55.0,30.06,SW,229,0.0,0.0,69,0.00,,,0.00,,2013-05-17 08:33:00,
2013-05-17 04:42:00,65.0,55.0,30.06,SW,229,0.0,0.0,69,0.00,,,0.00,,2013-05-17 08:42:00,
2013-05-17 04:52:00,65.0,54.0,30.06,SW,229,0.0,0.0,68,0.00,,,0.00,,2013-05-17 08:52:00,
2013-05-17 05:02:00,65.0,55.0,30.06,SW,229,0.0,0.0,69,0.00,,,0.00,,2013-05-17 09:02:00,
2013-05-17 05:12:00,65.0,55.0,30.06,SW,229,0.0,0.0,69,0.00,,,0.00,,2013-05-17 09:12:00,
2013-05-17 05:22:00,65.0,55.0,30.06,SW,229,0.0,0.0,69,0.00,,,0.00,,2013-05-17 09:22:00,
2013-05-17 05:33:00,65.0,54.0,30.06,SW,229,0.0,0.0,68,0.00,,,0.00,,2013-05-17 09:33:00,
2013-05-17 05:42:00,65.0,54.0,30.06,SW,229,0.0,0.0,68,0.00,,,0.00,,2013-05-17 09:42:00,
2013-05-17 05:53:00,65.0,55.0,30.07,SW,229,0.0,0.0,69,0.00,,,0.00,,2013-05-17 09:53:00,
2013-05-17 06:03:00,64.0,55.0,30.07,SW,229,0.0,0.0,72,0.00,,,0.00,,2013-05-17 10:03:00,
2013-05-17 06:12:00,64.0,55.0,30.07,SW,229,0.0,0.0,72,0.00,,,0.00,,2013-05-17 10:12:00,
2013-05-17 06:23:00,64.0,56.0,30.07,SW,229,0.0,0.0,74,0.00,,,0.00,,2013-05-17 10:23:00,
2013-05-17 06:33:00,64.0,56.0,30.08,SW,229,0.0,0.0,76,0.00,,,0.00,,2013-05-17 10:33:00,
2013-05-17 06:42:00,64.0,56.0,30.08,SW,229,0.0,0.0,76,0.00,,,0.00,,2013-05-17 10:42:00,
2013-05-17 06:53:00,64.0,57.0,30.08,SW,229,0.0,0.0,78,0.00,,,0.00,,2013-05-17 10:53:00,
2013-05-17 07:02:00,64.0,57.0,30.08,SW,229,0.0,0.0,78,0.00,,,0.00,,2013-05-17 11:02:00,
2013-05-17 07:12:00,64.0,57.0,30.08,SW,229,0.0,0.0,78,0.00,,,0.00,,2013-05-17 11:12:00,
2013-05-17 07:23:00,63.0,56.0,30.08,SW,229,0.0,0.0,79,0.00,,,0.00,,2013-05-17 11:23:00,
2013-05-17 07:34:00,63.0,56.0,30.09,SW,229,0.0,0.0,78,0.00,,,0.00,,2013-05-17 11:34:00,
2013-05-17 07:42:00,63.0,56.0,30.09,SW,229,0.0,0.0,78,0.00,,,0.00,,2013-05-17 11:42:00,
2013-05-17 07:53:00,64.0,57.0,30.09,SW,229,0.0,0.0,79,0.00,,,0.00,,2013-05-17 11:53:00,
2013-05-17 08:03:00,64.0,58.0,30.09,SW,229,0.0,0.0,80,0.00,,,0.00,,2013-05-17 12:03:00,
2013-05-17 08:12:00,64.0,58.0,30.10,SW,229,0.0,0.0,80,0.00,,,0.00,,2013-05-17 12:12:00,
2013-05-17 08:23:00,64.0,58.0,30.10,SW,229,0.0,0.0,80,0.00,,,0.00,,2013-05-17 12:23:00,
2013-05-17 08:32:00,64.0,58.0,30.10,SW,229,0.0,0.0,82,0.00,,,0.00,,2013-05-17 12:32:00,
2013-05-17 08:43:00,64.0,58.0,30.10,SW,229,0.0,0.0,82,0.00,,,0.00,,2013-05-17 12:43:00,
2013-05-17 08:53:00,64.0,58.0,30.11,SW,229,0.0,0.0,82,0.00,,,0.00,,2013-05-17 12:53:00,
2013-05-17 09:03:00,64.0,59.0,30.11,SW,229,0.0,0.0,83,0.00,,,0.00,,2013-05-17 13:03:00,
2013-05-17 09:12:00,64.0,59.0,30.11,SW,229,0.0,0.0,83,0.00,,,0.00,,2013-05-17 13:12:00,
2013-05-17 09:23:00,64.0,59.0,30.11,SW,229,0.0,0.0,83,0.00,,,0.00,,2013-05-17 13:23:00,
2013-05-17 09:33:00,65.0,59.0,30.11,SW,229,0.0,0.0,82,0.00,,,0.00,,2013-05-17 13:33:00,
2013-05-17 09:42:00,65.0,59.0,30.11,SW,229,0.0,0.0,82,0.00,,,0.00,,2013-05-17 13:42:00,
2013-05-17 09:52:00,65.0,59.0,30.11,SW,229,0.0,0.0,82,0.00,,,0.00,,2013-05-17 13:52:00,
2013-05-17 10:02:00,65.0,60.0,30.11,SW,229,0.0,0.0,84,0.00,,,0.00,,2013-05-17 14:02:00,
2013-05-17 10:13:00,65.0,60.0,30.11,SW,229,0.0,0.0,84,0.00,,,0.00,,2013-05-17 14:13:00,
2013-05-17 10:22:00,65.0,60.0,30.11,SW,229,0.0,0.0,85,0.00,,,0.00,,2013-05-17 14:22:00,
2013-05-17 10:34:00,65.0,60.0,30.12,SW,229,0.0,0.0,84,0.00,,,0.00,,2013-05-17 14:34:00,
2013-05-17 10:43:00,65.0,60.0,30.12,SW,229,0.0,0.0,84,0.00,,,0.00,,2013-05-17 14:43:00,
2013-05-17 10:53:00,66.0,61.0,30.12,SW,229,0.0,0.0,83,0.00,,,0.00,,2013-05-17 14:53:00,
2013-05-17 11:03:00,68.0,61.0,30.12,South,178,0.0,3.0,79,0.00,,,0.00,,2013-05-17 15:03:00,
2013-05-17 11:14:00,68.0,61.0,30.12,South,178,0.0,3.0,79,0.00,,,0.00,,2013-05-17 15:14:00,
2013-05-17 11:25:00,69.0,61.0,30.13,South,178,0.0,0.0,77,0.00,,,0.00,,2013-05-17 15:25:00,
2013-05-17 11:37:00,69.0,61.0,30.13,South,178,0.0,2.0,75,0.00,,,0.00,,2013-05-17 15:37:00,
2013-05-17 11:47:00,69.0,61.0,30.13,South,178,0.0,2.0,75,0.00,,,0.00,,2013-05-17 15:47:00,
2013-05-17 11:56:00,69.0,61.0,30.13,South,178,0.0,1.0,75,0.00,,,0.00,,2013-05-17 15:56:00,
2013-05-17 12:07:00,71.0,62.0,30.12,South,184,1.0,3.0,72,0.00,,,0.00,,2013-05-17 16:07:00,
2013-05-17 12:14:00,71.0,62.0,30.12,South,184,1.0,3.0,72,0.00,,,0.00,,2013-05-17 16:14:00,
2013-05-17 12:26:00,71.0,61.0,30.12,South,172,0.0,5.0,71,0.00,,,0.00,,2013-05-17 16:26:00,
2013-05-17 12:37:00,72.0,62.0,30.13,SSW,195,0.0,2.0,72,0.00,,,0.00,,2013-05-17 16:37:00,
2013-05-17 12:49:00,72.0,62.0,30.13,SSW,195,0.0,2.0,72,0.00,,,0.00,,2013-05-17 16:49:00,
2013-05-17 12:56:00,71.0,61.0,30.13,SSW,196,0.0,3.0,71,0.00,,,0.00,,2013-05-17 16:56:00,
2013-05-17 13:08:00,71.0,61.0,30.12,SSW,196,0.0,0.0,71,0.00,,,0.00,,2013-05-17 17:08:00,
2013-05-17 13:19:00,71.0,61.0,30.12,SSW,196,0.0,0.0,71,0.00,,,0.00,,2013-05-17 17:19:00,
2013-05-17 13:30:00,72.0,62.0,30.12,SSW,203,1.0,3.0,71,0.00,,,0.00,,2013-05-17 17:30:00,
2013-05-17 13:40:00,74.0,-99.9,30.11,SSE,158,0.0,2.0,69,0.00,,,0.00,,2013-05-17 17:40:00,
2013-05-17 13:49:00,74.0,63.0,30.11,SSE,158,0.0,2.0,69,0.00,,,0.00,,2013-05-17 17:49:00,
2013-05-17 14:00:00,74.0,63.0,30.11,SSE,151,0.0,6.0,69,0.00,,,0.00,,2013-05-17 18:00:00,
2013-05-17 14:09:00,75.0,64.0,30.11,SSE,152,0.0,2.0,68,0.00,,,0.00,,2013-05-17 18:09:00,
2013-05-17 14:20:00,75.0,64.0,30.11,SSE,152,0.0,2.0,68,0.00,,,0.00,,2013-05-17 18:20:00,
2013-05-17 14:30:00,75.0,63.0,30.10,SSE,150,0.0,4.0,67,0.00,,,0.00,,2013-05-17 18:30:00,
2013-05-17 14:40:00,76.0,-99.9,30.10,SSE,151,0.0,1.0,66,0.00,,,0.00,,2013-05-17 18:40:00,
2013-05-17 14:50:00,-999.0,-99.9,30.10,SSE,151,0.0,1.0,66,0.00,,,0.00,,2013-05-17 18:50:00,
2013-05-17 15:00:00,76.0,62.0,30.09,SSW,198,1.0,6.0,63,0.00,,,0.00,,2013-05-17 19:00:00,
2013-05-17 15:10:00,76.0,63.0,30.09,SSE,157,0.0,1.0,64,0.00,,,0.00,,2013-05-17 19:10:00,
2013-05-17 15:20:00,76.0,63.0,30.08,WSW,250,3.0,5.0,64,0.00,,,0.00,,2013-05-17 19:20:00,
2013-05-17 15:30:00,76.0,63.0,30.08,WSW,250,3.0,5.0,64,0.00,,,0.00,,2013-05-17 19:30:00,
2013-05-17 15:40:00,76.0,63.0,30.08,South,182,2.0,6.0,64,0.00,,,0.00,,2013-05-17 19:40:00,
2013-05-17 15:51:00,76.0,63.0,30.08,South,182,2.0,6.0,64,0.00,,,0.00,,2013-05-17 19:51:00,
2013-05-17 16:00:00,76.0,-99.9,30.08,ESE,120,0.0,5.0,65,0.00,,,0.00,,2013-05-17 20:00:00,
2013-05-17 16:09:00,76.0,63.0,30.08,SE,138,3.0,6.0,65,0.00,,,0.00,,2013-05-17 20:09:00,
2013-05-17 16:20:00,76.0,63.0,30.08,SE,138,3.0,6.0,65,0.00,,,0.00,,2013-05-17 20:20:00,
2013-05-17 16:30:00,77.0,63.0,30.07,South,189,2.0,7.0,62,0.00,,,0.00,,2013-05-17 20:30:00,
2013-05-17 16:40:00,77.0,63.0,30.07,South,175,2.0,7.0,62,0.00,,,0.00,,2013-05-17 20:40:00,
2013-05-17 16:50:00,77.0,63.0,30.07,South,175,2.0,7.0,62,0.00,,,0.00,,2013-05-17 20:50:00,
2013-05-17 16:58:00,76.0,61.0,30.06,SW,219,1.0,6.0,59,0.00,,,0.00,,2013-05-17 20:58:00,
2013-05-17 17:07:00,76.0,62.0,30.06,SSE,158,0.0,7.0,61,0.00,,,0.00,,2013-05-17 21:07:00,
2013-05-17 17:17:00,76.0,62.0,30.06,SSE,158,0.0,7.0,61,0.00,,,0.00,,2013-05-17 21:17:00,
2013-05-17 17:26:00,76.0,62.0,30.05,SSE,157,0.0,1.0,62,0.00,,,0.00,,2013-05-17 21:26:00,
2013-05-17 17:39:00,76.0,62.0,30.05,South,179,1.0,5.0,61,0.00,,,0.00,,2013-05-17 21:39:00,
2013-05-17 17:49:00,76.0,62.0,30.05,West,264,1.0,3.0,62,0.00,,,0.00,,2013-05-17 21:49:00,
2013-05-17 17:57:00,76.0,62.0,30.05,West,264,1.0,3.0,62,0.00,,,0.00,,2013-05-17 21:57:00,
2013-05-17 18:07:00,76.0,62.0,30.05,South,178,0.0,4.0,63,0.00,,,0.00,,2013-05-17 22:07:00,
2013-05-17 18:17:00,76.0,62.0,30.05,South,178,0.0,4.0,63,0.00,,,0.00,,2013-05-17 22:17:00,
2013-05-17 18:28:00,75.0,62.0,30.05,SSW,200,0.0,2.0,65,0.00,,,0.00,,2013-05-17 22:28:00,
2013-05-17 18:38:00,75.0,62.0,30.05,SSW,200,1.0,2.0,65,0.00,,,0.00,,2013-05-17 22:38:00,
2013-05-17 18:47:00,75.0,62.0,30.05,SSW,200,1.0,2.0,65,0.00,,,0.00,,2013-05-17 22:47:00,
2013-05-17 18:54:00,74.0,61.0,30.05,SW,234,1.0,5.0,65,0.00,,,0.00,,2013-05-17 22:54:00,
2013-05-17 19:04:00,74.0,62.0,30.05,West,265,0.0,5.0,66,0.00,,,0.00,,2013-05-17 23:04:00,
2013-05-17 19:13:00,74.0,62.0,30.05,West,265,0.0,5.0,66,0.00,,,0.00,,2013-05-17 23:13:00,
2013-05-17 19:23:00,74.0,63.0,30.05,West,265,0.0,2.0,68,0.00,,,0.00,,2013-05-17 23:23:00,
2013-05-17 19:37:00,73.0,63.0,30.05,SSW,203,2.0,7.0,70,0.00,,,0.00,,2013-05-17 23:37:00,
2013-05-17 19:47:00,73.0,63.0,30.05,SSW,203,2.0,7.0,70,0.00,,,0.00,,2013-05-17 23:47:00,
2013-05-17 19:54:00,73.0,63.0,30.05,SW,236,1.0,3.0,71,0.00,,,0.00,,2013-05-17 23:54:00,
2013-05-17 20:02:00,72.0,64.0,30.05,WSW,237,0.0,5.0,75,0.00,,,0.00,,2013-05-18 00:02:00,
2013-05-17 20:14:00,72.0,64.0,30.05,WSW,237,0.0,5.0,75,0.00,,,0.00,,2013-05-18 00:14:00,
2013-05-17 20:22:00,72.0,65.0,30.06,WSW,240,1.0,3.0,78,0.00,,,0.00,,2013-05-18 00:22:00,
2013-05-17 20:33:00,71.0,64.0,30.06,SSW,205,0.0,2.0,79,0.00,,,0.00,,2013-05-18 00:33:00,
2013-05-17 20:45:00,71.0,64.0,30.06,SSW,205,0.0,2.0,79,0.00,,,0.00,,2013-05-18 00:45:00,
2013-05-17 20:54:00,71.0,64.0,30.05,East,85,0.0,6.0,79,0.00,,,0.00,,2013-05-18 00:54:00,
2013-05-17 21:03:00,70.0,64.0,30.06,West,268,0.0,6.0,82,0.00,,,0.00,,2013-05-18 01:03:00,
2013-05-17 21:13:00,70.0,64.0,30.06,West,268,0.0,6.0,82,0.00,,,0.00,,2013-05-18 01:13:00,
2013-05-17 21:24:00,69.0,64.0,30.06,West,270,0.0,3.0,84,0.01,,,0.01,,2013-05-18 01:24:00,
2013-05-17 21:32:00,68.0,63.0,30.06,WSW,251,0.0,5.0,85,0.01,,,0.01,,2013-05-18 01:32:00,
2013-05-17 21:43:00,68.0,63.0,30.06,WSW,251,0.0,5.0,85,0.01,,,0.01,,2013-05-18 01:43:00,
2013-05-17 21:52:00,68.0,63.0,30.07,West,271,0.0,6.0,84,0.01,,,0.01,,2013-05-18 01:52:00,
2013-05-17 22:03:00,68.0,63.0,30.08,West,271,0.0,4.0,84,0.01,,,0.01,,2013-05-18 02:03:00,
2013-05-17 22:12:00,68.0,63.0,30.08,West,271,0.0,4.0,84,0.01,,,0.01,,2013-05-18 02:12:00,
2013-05-17 22:22:00,67.0,62.0,30.08,WSW,256,0.0,2.0,84,0.00,,,0.01,,2013-05-18 02:22:00,
2013-05-17 22:32:00,66.0,62.0,30.09,SSE,165,1.0,5.0,86,0.04,,,0.05,,2013-05-18 02:32:00,
2013-05-17 22:42:00,66.0,62.0,30.09,SSE,165,1.0,5.0,86,0.04,,,0.05,,2013-05-18 02:42:00,
2013-05-17 22:53:00,66.0,62.0,30.08,SSE,148,0.0,2.0,88,0.05,,,0.06,,2013-05-18 02:53:00,
2013-05-17 23:03:00,66.0,63.0,30.09,South,191,0.0,5.0,89,0.07,,,0.08,,2013-05-18 03:03:00,
2013-05-17 23:12:00,66.0,63.0,30.09,South,191,0.0,5.0,89,0.07,,,0.08,,2013-05-18 03:12:00,
2013-05-17 23:22:00,65.0,62.0,30.09,SSE,158,0.0,3.0,90,0.08,,,0.09,,2013-05-18 03:22:00,
2013-05-17 23:33:00,65.0,62.0,30.09,SSW,200,0.0,3.0,91,0.05,,,0.09,,2013-05-18 03:33:00,
2013-05-17 23:43:00,65.0,62.0,30.09,SSW,200,0.0,3.0,91,0.05,,,0.09,,2013-05-18 03:43:00,
2013-05-17 23:53:00,65.0,62.0,30.09,SSW,200,0.0,2.0,91,0.04,,,0.10,,2013-05-18 03:53:00,